Location: Waning Moon II Observatory
(30.3730°N, 89.7620°W)
Time: 01:10:28
(UTC-05:00)

Meteor 1-21 - Visible Passes

Search period start: 01 July 2016 00:00
Search period end: 11 July 2016 00:00
Orbit: 844 x 888 km, 81.2° (Epoch: 30 June)

Date Brightness Start Highest point End Pass type
(mag) Time Alt. Az. Time Alt. Az. Time Alt. Az.
01 Jul 6.2 04:36:50 10° NNE 04:41:39 29° ENE 04:46:25 10° SE visible
02 Jul 6.2 04:29:29 10° NNE 04:34:19 29° ENE 04:39:07 10° SE visible
03 Jul 6.1 04:22:08 10° NNE 04:27:00 29° ENE 04:31:48 10° SE visible
04 Jul 6.1 04:14:48 10° NNE 04:19:40 30° ENE 04:24:30 10° SE visible
05 Jul 6.0 04:07:27 10° NNE 04:12:20 30° ENE 04:17:11 10° SE visible
06 Jul 6.0 04:00:08 10° NNE 04:05:01 30° ENE 04:09:52 10° SE visible
07 Jul 5.9 03:52:46 10° NNE 03:57:41 31° ENE 04:02:34 10° SE visible
07 Jul 5.3 05:36:17 10° NW 05:40:42 24° W 05:45:07 10° SW visible
08 Jul 5.9 03:45:26 10° NNE 03:50:21 31° ENE 03:55:15 10° SE visible
08 Jul 5.3 05:28:58 10° NW 05:33:21 24° W 05:37:46 10° SW visible
09 Jul 5.8 03:38:06 10° NNE 03:43:02 31° ENE 03:47:57 10° SE visible
09 Jul 5.3 05:21:39 10° NW 05:26:02 24° W 05:30:24 10° SW visible
10 Jul 5.8 03:30:45 10° NNE 03:35:42 32° ENE 03:40:38 10° SE visible
10 Jul 5.3 05:14:21 10° NW 05:18:42 24° W 05:23:03 10° SW visible
